This is the latest recevied weather packets stored in our database for station/object KG4GJX. If no packets are shown the sender has not sent any weather packets the latest 10 day(s).
| Time | Temp. | Humidity | Pressure | Rain* | Wind** | Luminosity | Snow |
|---|---|---|---|---|---|---|---|
| 1777851780 | 20° C | 49% | 1016.2 hPa | 0 mm | - | - | - |
| 1777851117 | 21.11° C | 45% | 1016.2 hPa | 0 mm | - | - | - |
| 1777850455 | 20.56° C | 45% | 1016.2 hPa | 0 mm | - | - | - |
| 1777849792 | 20.56° C | 44% | 1016.2 hPa | 0 mm | - | - | - |
| 1777849130 | 20.56° C | 45% | 1016.5 hPa | 0 mm | - | - | - |
| 1777848468 | 21.11° C | 44% | 1016.5 hPa | 0 mm | - | - | - |
| 1777847805 | 21.67° C | 42% | 1016.5 hPa | 0 mm | - | - | - |
| 1777847143 | 21.67° C | 42% | 1016.5 hPa | 0 mm | - | - | - |
| 1777846480 | 21.11° C | 43% | 1016.9 hPa | 0 mm | - | - | - |
| 1777845818 | 21.11° C | 43% | 1016.9 hPa | 0 mm | - | - | - |
| 1777845155 | 21.11° C | 41% | 1016.9 hPa | 0 mm | - | - | - |
| 1777844493 | 21.11° C | 42% | 1016.9 hPa | 0 mm | - | - | - |
| 1777843831 | 21.11° C | 43% | 1017.2 hPa | 0 mm | - | - | - |
| 1777843168 | 21.11° C | 42% | 1017.2 hPa | 0 mm | - | - | - |
| 1777842506 | 21.11° C | 41% | 1017.2 hPa | 0 mm | - | - | - |
| 1777841843 | 21.11° C | 43% | 1017.6 hPa | 0 mm | - | - | - |
| 1777841181 | 21.11° C | 42% | 1017.6 hPa | 0 mm | - | - | - |
| 1777840519 | 21.11° C | 40% | 1017.9 hPa | 0 mm | - | - | - |
| 1777839855 | 21.11° C | 43% | 1017.9 hPa | 0 mm | - | - | - |
| 1777839153 | 20.56° C | 41% | 1018.2 hPa | 0 mm | - | - | - |
| 1777838491 | 20.56° C | 44% | 1018.6 hPa | 0 mm | - | - | - |
| 1777837828 | 20.56° C | 41% | 1018.6 hPa | 0 mm | - | - | - |
| 1777837166 | 20.56° C | 42% | 1018.9 hPa | 0 mm | - | - | - |
| 1777836504 | 20° C | 43% | 1018.9 hPa | 0 mm | - | - | - |
| 1777835841 | 19.44° C | 44% | 1018.9 hPa | 0 mm | - | - | - |
* Rain latest hour (hover to see other rain measurements)
** Current wind speed in m/s (hover to see current wind gust speed)